Location: Black Swamp Observatory
(41.3920°N, 84.1250°W)
Time: 12:40:19
(UTC-05:00)

ISS - Pass Details

Date: 06 December 2021
Orbit: 413 x 422 km, 51.6° (Epoch: 19 January)

Event Time Altitude Azimuth Distance (km) Brightness Sun altitude
Rises 19:41:53 0° 291° (WNW) 2,376 1.0 -28.3°
Reaches altitude 10° 19:44:31 10° 270° (W) 1,504 0.0 -28.8°
Enters shadow 19:46:12 16° 240° (WSW) 1,188 -0.8 -29.1°
